The Dalles, WA

7:41 PM PDT on July 23, 2019 (GMT -0700)
Columbia Gorge Regional-The Dalles

Weather History for KDLS - May, 2019

Change the Weather History Date:

Wednesday, May 8, 2019

  Actual Average Record
Temperature  
Mean Temperature 70 °F -  
Max Temperature 84 °F 73 °F 99 °F (1987)
Min Temperature 55 °F 46 °F 32 °F (2002)
Cooling Degree Days 4    
Growing Degree Days 20 (Base 50)    
Moisture  
Dew Point 46 °F    
Average Humidity 47    
Maximum Humidity 72    
Minimum Humidity 23    
Precipitation  
Precipitation 0.00 in - - ()
Sea Level Pressure  
Sea Level Pressure 30.05 in    
Wind  
Wind Speed 11 mph (NNW)    
Max Wind Speed 18 mph    
Max Gust Speed 23 mph    
Visibility 10 miles    
Events      
Averages and records for this station are not official NWS values.
T = Trace of Precipitation, MM = Missing Value Source: NWS Daily Summary

Daily Weather History Graph

Daily Weather History Graph

Search for Another Location

Airport or City:

Astronomy

May. 08, 2019 Rise Set
Actual Time 5:42 AM PDT 8:20 PM PDT
Civil Twilight 5:08 AM PDT 8:54 PM PDT
Nautical Twilight 4:26 AM PDT 9:37 PM PDT
Astronomical Twilight 3:37 AM PDT 10:26 PM PDT
Moon 8:39 AM PDT (5/8) No Moon Set
Length of Visible Light 15h 45m
Length of Day
14h 37m
Waxing Crescent, 16% of the Moon is Illuminated
May 8
Waxing Crescent
May 11
First Quarter
May 18
Full
May 26
Last Quarter
Jun 3
New

Hourly Weather History & Observations

Time (PDT) Temp. Dew Point Humidity Pressure Visibility Wind Dir Wind Speed Gust Speed Precip Events Conditions
12:53 AM 63.0 °F 46.0 °F 54% 30.05 in 10.0 mi NW 10.4 mph - N/A   Clear
1:53 AM 61.0 °F 46.0 °F 58% 30.06 in 10.0 mi NW 17.3 mph - N/A   Clear
2:53 AM 60.1 °F 46.0 °F 60% 30.06 in 10.0 mi NW 16.1 mph - N/A   Clear
3:53 AM 57.9 °F 46.0 °F 65% 30.08 in 10.0 mi NNW 18.4 mph 23.0 mph N/A   Clear
4:53 AM 57.0 °F 46.0 °F 67% 30.10 in 10.0 mi NW 17.3 mph - N/A   Clear
5:53 AM 55.0 °F 46.0 °F 72% 30.11 in 10.0 mi West 6.9 mph - N/A   Clear
6:53 AM 55.9 °F 46.9 °F 72% 30.12 in 10.0 mi NW 9.2 mph - N/A   Clear
7:53 AM 60.1 °F 46.9 °F 62% 30.13 in 10.0 mi NW 13.8 mph 18.4 mph N/A   Clear
8:53 AM 61.0 °F 48.0 °F 62% 30.12 in 10.0 mi NW 9.2 mph - N/A   Clear
9:53 AM 64.9 °F 48.0 °F 54% 30.12 in 10.0 mi NW 15.0 mph - N/A   Clear
10:53 AM 70.0 °F 48.9 °F 47% 30.11 in 10.0 mi NNW 11.5 mph - N/A   Scattered Clouds
11:53 AM 71.1 °F 48.0 °F 44% 30.09 in 10.0 mi NNW 8.1 mph - N/A   Clear
12:53 PM 75.9 °F 46.9 °F 36% 30.07 in 10.0 mi NW 5.8 mph - N/A   Clear
1:53 PM 80.1 °F 43.0 °F 27% 30.05 in 10.0 mi South 5.8 mph - N/A   Clear
2:53 PM 81.0 °F 42.1 °F 25% 30.03 in 10.0 mi Variable 5.8 mph - N/A   Clear
3:53 PM 82.9 °F 42.1 °F 24% 30.00 in 10.0 mi NE 8.1 mph - N/A   Clear
4:53 PM 82.9 °F 42.1 °F 24% 29.99 in 10.0 mi SE 5.8 mph - N/A   Partly Cloudy
5:53 PM 84.0 °F 42.1 °F 23% 29.97 in 10.0 mi ESE 5.8 mph - N/A   Scattered Clouds
6:53 PM 81.0 °F 42.1 °F 25% 29.96 in 10.0 mi ESE 6.9 mph - N/A   Overcast
7:53 PM 75.0 °F 44.1 °F 33% 29.96 in 10.0 mi ENE 6.9 mph - N/A   Overcast
8:53 PM 72.0 °F 43.0 °F 35% 29.98 in 10.0 mi Calm Calm - N/A   Overcast
9:53 PM 68.0 °F 50.0 °F 52% 29.99 in 10.0 mi NW 5.8 mph - N/A   Mostly Cloudy
10:53 PM 64.9 °F 46.9 °F 52% 30.00 in 10.0 mi NW 4.6 mph - N/A   Scattered Clouds
11:53 PM 62.1 °F 46.9 °F 58% 30.00 in 10.0 mi NW 4.6 mph - N/A   Clear